Hourly Weather Roundup
Issued by NWS Central Illinois

Home | Current Version | Previous Version | Graphics & Text | Print | Product List | Glossary On
Versions: 1 2 3 4 5 6 7 8 9 10 11 12 13 14 15 16 17 18 19 20 21 22 23 24 25 26 27 28 29 30 31 32 33 34 35 36 37 38 39 40 41 42 43 44 45 46 47 48 49 50
401
NZUS43 KILX 231210
HWRILX

Area Weather Roundup
National Weather Service Lincoln IL
600 AM CST THU NOV 23 2017

NOTE:  "FAIR" indicates few or no clouds below 12,000 feet, with
       no sigificant weather and/or obstructions to visibility.


CITY           SKY/WX    TMP DP  RH WIND       PRES   REMARKS
Bloomington    CLOUDY    32  22  66 S15       30.07F WCI  22
6HR MIN TEMP:  27; 6HR MAX TEMP:  32;

Champaign      CLOUDY    31  24  75 S12       30.11F WCI  22
6HR MIN TEMP:  28; 6HR MAX TEMP:  31;

Danville       CLOUDY    30  22  72 S5        30.09F WCI  25
6HR MIN TEMP:  28; 6HR MAX TEMP:  30;

Decatur        CLOUDY    32  22  66 S8        30.12S WCI  25
6HR MIN TEMP:  28; 6HR MAX TEMP:  32;

Effingham      CLOUDY    29  23  78 S5        30.16F WCI  24
6HR MIN TEMP:  26; 6HR MAX TEMP:  29;

Flora          CLEAR     25  23  92 S3        30.17F
6HR MIN TEMP:  25; 6HR MAX TEMP:  29;

Galesburg      CLEAR     31  22  71 S9        30.04S WCI  23
6HR MIN TEMP:  31; 6HR MAX TEMP:  33;

Jacksonville   CLEAR     31  21  67 S7        30.10S WCI  24
6HR MIN TEMP:  31; 6HR MAX TEMP:  32;

Lacon          CLOUDY    33  20  59 SW10      30.05S WCI  25
6HR MIN TEMP:  32; 6HR MAX TEMP:  34;

Lawrenceville  CLEAR     27  24  89 S3        30.17F
6HR MIN TEMP:  27; 6HR MAX TEMP:  30;

Litchfield     CLEAR     28  24  83 S8        30.11F WCI  20
6HR MIN TEMP:  28; 6HR MAX TEMP:  31;

$$


CITY           SKY/WX    TMP DP  RH WIND       PRES   REMARKS
Lincoln        CLOUDY    33  25  73 S7        30.09F WCI  27
6HR MIN TEMP:  29; 6HR MAX TEMP:  33;

Macomb         CLEAR     31  21  65 S9        30.07S WCI  23
6HR MIN TEMP:  28; 6HR MAX TEMP:  32;

Mattoon        CLOUDY    30  22  72 S7        30.12F WCI  23
6HR MIN TEMP:  27; 6HR MAX TEMP:  30;

Mt Carmel AP   CLEAR     26  25  94 CALM      30.17F
6HR MIN TEMP:  26; 6HR MAX TEMP:  28;

Olney-Noble AP CLEAR     24  22  93 CALM      30.17F
Paris AP       CLOUDY    30  25  81 S6        30.14F WCI  24
6HR MIN TEMP:  26; 6HR MAX TEMP:  30;

Peoria         CLOUDY    33  22  63 S13       30.07F WCI  24
6HR MIN TEMP:  31; 6HR MAX TEMP:  33;

Pontiac        CLOUDY    33  24  71 S10       30.09S WCI  25
6HR MIN TEMP:  31; 6HR MAX TEMP:  33;

Rantoul        CLOUDY    33  26  75 S5        30.11S WCI  29
6HR MIN TEMP:  32; 6HR MAX TEMP:  33;

Robinson       MOCLDY    24  23  95 CALM      30.18S
6HR MIN TEMP:  23; 6HR MAX TEMP:  28;

Springfield    CLOUDY    33  23  66 S9        30.10F WCI  25
6HR MIN TEMP:  31; 6HR MAX TEMP:  33;

Taylorville    MOCLDY    29  23  76 S9        30.12S WCI  21
6HR MIN TEMP:  29; 6HR MAX TEMP:  31;

$$

...REGIONAL REPORTS...


CITY           SKY/WX    TMP DP  RH WIND       PRES   REMARKS
Chicago O`Hare CLOUDY    34  20  56 SW9       30.05R WCI  27
Kankakee       CLOUDY    32  23  70 W8        30.09F WCI  25
Moline         CLEAR     32  19  58 S5        30.00F WCI  27
Mount Sterling CLEAR     28  20  70 S8        30.06F WCI  20
Mount Vernon   CLEAR     22  21  96 CALM      30.17F
Pittsfield     CLEAR     32  20  62 S5        30.09S WCI  27
Quincy         CLEAR     31  19  61 S9        30.05F WCI  23
Rockford       CLOUDY    31  22  69 S8        30.03F WCI  23
$$


CITY           SKY/WX    TMP DP  RH WIND       PRES   REMARKS
Burlington     CLOUDY    31  21  66 S12       30.02S WCI  22
Cedar Rapids   CLOUDY    27  19  72 S8        29.95F WCI  19
Des Moines     CLOUDY    31  20  63 SW8       29.96F WCI  23
Kirksville     CLEAR     33  22  63 SW9       30.03S WCI  25
Ottumwa        CLOUDY    32  20  61 SW8       29.97F WCI  25
St Louis       PTCLDY    32  21  64 S5        30.12F WCI  27
$$


CITY           SKY/WX    TMP DP  RH WIND       PRES   REMARKS
Terre Haute    MOCLDY    25  22  88 CALM      30.15F
Evansville     CLOUDY    26  24  92 CALM      30.18F
Indianapolis   MOCLDY    29  24  82 S5        30.14F WCI  24
Lafayette      CLOUDY    30  24  78 S6        30.12F WCI  24
Madison        MOCLDY    32  19  58 S9        29.96F WCI  24
Milwaukee      CLOUDY    34  21  59 S7        30.00F WCI  28
$$






USA.gov is the U.S. government's official web portal to all federal, state and local government web resources and services.